TimePDT,TemperatureF,Dew PointF,Humidity,Sea Level PressureIn,VisibilityMPH,Wind Direction,Wind SpeedMPH,Gust SpeedMPH,PrecipitationIn,Events,Conditions,WindDirDegrees,DateUTC
12:58 AM,49.3,43.2,79,30.25,10.0,SSE,3.5,-,N/A,,Scattered Clouds,150,2012-09-11 07:58:00
1:58 AM,48.9,42.6,79,30.25,10.0,South,2.3,-,N/A,,Mostly Cloudy,170,2012-09-11 08:58:00
2:58 AM,47.5,42.8,84,30.26,10.0,East,2.3,-,N/A,,Mostly Cloudy,90,2012-09-11 09:58:00
3:58 AM,43.5,41.2,91,30.27,10.0,SE,2.3,-,N/A,,Clear,130,2012-09-11 10:58:00
4:58 AM,41.2,38.5,90,30.29,10.0,South,1.2,-,N/A,,Clear,170,2012-09-11 11:58:00
5:58 AM,40.6,38.8,93,30.30,10.0,South,2.3,-,N/A,,Clear,190,2012-09-11 12:58:00
6:58 AM,40.1,38.8,95,30.31,10.0,Calm,Calm,-,N/A,,Clear,10,2012-09-11 13:58:00
7:58 AM,43.3,41.9,95,30.33,10.0,South,4.6,-,N/A,,Clear,170,2012-09-11 14:58:00
8:58 AM,53.2,43.3,69,30.32,10.0,Calm,Calm,-,N/A,,Clear,20,2012-09-11 15:58:00
9:38 AM,55.4,44.6,67,30.31,10.0,North,9.2,-,N/A,,Mostly Cloudy,10,2012-09-11 16:38:00
9:58 AM,56.8,45.5,66,30.32,10.0,North,11.5,17.3,N/A,,Mostly Cloudy,10,2012-09-11 16:58:00
10:18 AM,57.2,44.6,63,30.31,10.0,NE,10.4,-,N/A,,Scattered Clouds,40,2012-09-11 17:18:00
10:28 AM,57.2,44.6,63,30.32,10.0,NNE,9.2,-,N/A,,Mostly Cloudy,20,2012-09-11 17:28:00
10:58 AM,59.0,44.6,59,30.33,10.0,NNE,10.4,-,N/A,,Scattered Clouds,20,2012-09-11 17:58:00
11:58 AM,61.2,43.5,52,30.32,10.0,North,10.4,-,N/A,,Clear,10,2012-09-11 18:58:00
12:58 PM,63.7,41.9,45,30.32,10.0,North,9.2,-,N/A,,Clear,360,2012-09-11 19:58:00
1:58 PM,64.6,37.6,37,30.32,10.0,NNE,11.5,-,N/A,,Clear,30,2012-09-11 20:58:00
2:58 PM,65.1,40.8,41,30.30,10.0,North,9.2,-,N/A,,Clear,360,2012-09-11 21:58:00
3:58 PM,66.0,41.0,40,30.30,10.0,ENE,6.9,-,N/A,,Clear,60,2012-09-11 22:58:00
4:58 PM,66.2,40.6,39,30.27,10.0,North,10.4,-,N/A,,Clear,360,2012-09-11 23:58:00
5:58 PM,64.8,39.7,40,30.29,10.0,NNE,8.1,-,N/A,,Clear,30,2012-09-12 00:58:00
6:58 PM,61.3,40.5,46,30.28,10.0,NNE,10.4,-,N/A,,Clear,30,2012-09-12 01:58:00
7:58 PM,57.9,38.7,49,30.29,10.0,NNE,8.1,-,N/A,,Clear,20,2012-09-12 02:58:00
8:58 PM,57.0,40.6,54,30.30,10.0,NNE,10.4,-,N/A,,Clear,20,2012-09-12 03:58:00
9:58 PM,55.9,40.8,57,30.32,10.0,NNE,5.8,-,N/A,,Clear,30,2012-09-12 04:58:00
10:58 PM,54.9,39.0,55,30.32,10.0,NE,4.6,-,N/A,,Clear,40,2012-09-12 05:58:00
11:58 PM,52.7,39.0,60,30.32,10.0,NE,2.3,-,N/A,,Clear,50,2012-09-12 06:58:00